Regional Weather Roundup
Issued by NWS

Home | Current Version | Previous Version | Graphics & Text | Print | Product List | Glossary On
Versions: 1 2 3 4 5 6 7 8 9 10 11 12 13 14 15 16 17 18 19 20 21 22 23 24 25 26 27 28 29 30 31 32 33 34 35 36 37 38 39 40 41 42 43 44 45 46 47 48 49 50
000
ASUS44 KMEG 291400
RWRTN
TENNESSEE HOURLY STATE WEATHER ROUNDUP
NATIONAL WEATHER SERVICE MEMPHIS TN
900 AM CDT MON AUG 29 2016

TNZ002-004-019-021-049-052-054-088>092-291500-
WEST TENNESSEE

CITY           SKY/WX    TMP DP  RH WIND       PRES   REMARKS
MEMPHIS INTL   MOSUNNY   85  71  63 SE8       30.11R HX  90
NWS MEMPHIS      N/A     83 N/A N/A MISG        N/A
JACKSON        MOSUNNY   81  74  79 CALM      30.14R
DYERSBURG      SUNNY     81  73  78 MISG      30.13S
UNION CITY     SUNNY     79  73  83 E5        30.14S
PARIS          SUNNY     77  72  83 E7        30.17R
LEXINGTON      SUNNY     79  72  78 NE3       30.14R
$$

TNZ008-025-027-028-033-062-065-066-291500-
NORTH MIDDLE TENNESSEE

CITY           SKY/WX    TMP DP  RH WIND       PRES   REMARKS
NASHVILLE      MOSUNNY   80  70  71 NE3       30.18R
CLARKSVILLE    MOSUNNY   76  69  79 E5        30.18R
SMYRNA         SUNNY     77  70  78 MISG      30.19R
COOKEVILLE     PTSUNNY   79  73  83 CALM      30.19R
CROSSVILLE     SUNNY     77  68  73 VRB3      30.24S
$$

TNZ061-075-076-078-094-096-097-291500-
SOUTH MIDDLE TENNESSEE

CITY           SKY/WX    TMP DP  RH WIND       PRES   REMARKS
SHELBYVILLE    MOSUNNY   81  73  78 CALM      30.18R
$$

TNZ017-018-042-046-047-291500-
NORTHEAST TENNESSEE

CITY           SKY/WX    TMP DP  RH WIND       PRES   REMARKS
TRI CITIES     MOSUNNY   74  66  76 SE5       30.24R
$$

TNZ012-013-036-069-073-074-291500-
CENTRAL EAST TENNESSEE

CITY           SKY/WX    TMP DP  RH WIND       PRES   REMARKS
KNOXVILLE      MOSUNNY   77  68  73 E3        30.19R
OAK RIDGE      SUNNY     78  70  76 E6        30.21
GATLINBURG     MOSUNNY   72  66  83 CALM      30.20R
$$

TNZ083-085-099-291500-
SOUTHEAST TENNESSEE

CITY           SKY/WX    TMP DP  RH WIND       PRES   REMARKS
CHATTANOOGA    MOSUNNY   79  71  76 N3        30.18S
$$

SKY/WX REPORTED AS FAIR MEANS FEW OR NO CLOUDS BELOW
12 THOUSAND FEET.





USA.gov is the U.S. government's official web portal to all federal, state and local government web resources and services.